Regional Weather Roundup
Issued by NWS Kansas City/Pleasant Hill, MO

Home | Current Version | Previous Version | Graphics & Text | Print | Product List | Glossary Off
Versions: 1 2 3 4 5 6 7 8 9 10 11 12 13 14 15 16 17 18 19 20 21 22 23 24 25 26 27 28 29 30 31 32 33 34 35 36 37 38 39 40 41 42 43 44 45 46 47 48 49 50

000
ASUS43 KEAX 010004
RWREAX

WEATHER ROUNDUP FOR EASTERN KANSAS AND NORTHWEST MISSOURI
NATIONAL WEATHER SERVICE KANSAS CITY/PLEASANT HILL MO
600 PM CST SAT JAN 31 2015

KSZ040-057-103>105-MOZ028-029-037-043-010100-
...KANSAS CITY METROPOLITAN AREA...

CITY           SKY/WX    TMP DP  RH WIND       PRES   REMARKS
K.C. INTL      RAIN      35  35 100 SE10      30.00F FOG     WCI  27
6HR MIN TEMP:  35; 6HR MAX TEMP:  39; 6HR PCP:  0.27;

K.C. DOWNTOWN  LGT RAIN  37  34  89 SE8       30.01F WCI  31
6HR MIN TEMP:  37; 6HR MAX TEMP:  41; 6HR PCP:  0.08;

LEES SUMMIT    LGT RAIN  36  34  92 SE6       30.02S WCI  31
6HR MIN TEMP:  35; 6HR MAX TEMP:  39; 6HR PCP:  0.16;

OLATHE - IXD   LGT RAIN  36  35  96 SE12      30.00F FOG     WCI  28
6HR MIN TEMP:  36; 6HR MAX TEMP:  40; 6HR PCP:  0.26;

OLATHE - OJC   LGT RAIN  36  35  96 SE7       29.99F FOG     WCI  30
6HR MIN TEMP:  36; 6HR MAX TEMP:  39; 6HR PCP:  0.19;

LAWRENCE       LGT RAIN  36  35  96 SE10      29.99F FOG     WCI  28

$$

MOZ001>008-011>017-020>025-030>033-038>040-044>046-053-054-010100-
...NORTHERN AND CENTRAL MISSOURI...

CITY           SKY/WX    TMP DP  RH WIND       PRES   REMARKS
ST. JOSEPH     LGT SNOW  33  32  96 SE6       30.01F FOG     WCI  28
6HR MIN TEMP:  33; 6HR MAX TEMP:  38; 6HR PCP:  0.31;

MOSBY          LGT RAIN  36  36 100 SE5       30.04S WCI  32
WARRENSBURG    LGT RAIN  37  34  87 SE7       30.03S WCI  32
WHITEMAN AFB   CLOUDY    38  35  87 SE7       30.02F WCI  33
6HR MIN TEMP:  38; 6HR MAX TEMP:  40; 6HR PCP:  0.09;

CLINTON        CLOUDY    41  34  75 SE8       30.04F
SEDALIA        CLOUDY    38  35  89 SE13      30.06F WCI  30
6HR MIN TEMP:  38; 6HR MAX TEMP:  40; 6HR PCP:  0.15;

WARSAW         NOT AVBL
MARSHALL       MIX PCPN  39  39 100 E9        30.07F WCI  33
CHILLICOTHE      N/A     35  33  92 SE5       30.06F WCI  31
6HR MIN TEMP:  34; 6HR MAX TEMP:  39; 6HR PCP:  0.42;

MOBERLY        MIX PCPN  36  32  87 E10       30.10F WCI  28
KIRKSVILLE     LGT SNOW  33  33 100 SE8       30.09F FOG     WCI  26
6HR MIN TEMP:  33; 6HR MAX TEMP:  37; 6HR PCP:  0.24;


$$

MOZ041-047>049-056>058-063>065-088>090-097-010100-
...EASTERN AND SOUTHERN MISSOURI...

CITY           SKY/WX    TMP DP  RH WIND       PRES   REMARKS
ST. LOUIS INTL LGT RAIN  44  28  53 SE3       30.19F
6HR MIN TEMP:  44; 6HR MAX TEMP:  47; 6HR PCP: TRACE;

SPIRIT OF STL  CLOUDY    40  31  70 E5        30.16F
COLUMBIA       CLOUDY    37  35  92 E6        30.09F WCI  32
JEFFERSON CITY CLOUDY    38  35  89 SE6       30.10F WCI  33
HANNIBAL       LGT SNOW  37  34  87 S9        30.15F WCI  31
ROLLA          CLOUDY    39  24  55 SE7       30.09F WCI  34
LEBANON        CLOUDY    43  19  39 SE9       30.06F
OSAGE BEACH    CLOUDY    39  30  70 E5        30.08F
SPRINGFIELD    CLOUDY    43  24  47 SE13      30.04S
BRANSON        CLOUDY    43  25  49 S8        30.07F
NEVADA         DRIZZLE   39  30  70 SE8       30.00F WCI  34
JOPLIN         CLOUDY    45  27  49 SE8       29.98F
WEST PLAINS    CLOUDY    42  18  37 SE8G17    30.11F

$$

IAZ060-094-KSZ022-034>040-054-083-096-NEZ052-066-093-010100-
...KANSAS...SOUTHEAST NEBRASKA AND IOWA...

CITY           SKY/WX    TMP DP  RH WIND       PRES   REMARKS
TOPEKA         LGT RAIN  37  35  92 SE14      29.96F FOG     WCI  28
6HR MIN TEMP:  34; 6HR MAX TEMP:  38; 6HR PCP:  0.39;

MANHATTAN      LGT RAIN  38  37  97 SE6       29.91F WCI  33
EMPORIA        LGT RAIN  37  36  96 SE15      29.93F FOG     WCI  28
CHANUTE        LGT RAIN  38  36  92 SE5       29.98F FOG     WCI  34
WICHITA        LGT RAIN  39  37  92 S15       29.89F FOG     WCI  31
OMAHA          LGT SNOW  33  32  96 SE7       29.97F VSB 1   WCI  27
LINCOLN        LGT SNOW  33  32  96 SE3       29.93F FOG
FALLS CITY     LGT SNOW  33  33 100 SE8       29.96F FOG     WCI  26
LAMONI         LGT SNOW  32  32 100 SE7       30.03F VSB 3/4 WCI  26
DES MOINES     LGT SNOW  35  32  88 SE8       30.05F FOG     WCI  29

$$



USA.gov is the U.S. government's official web portal to all federal, state and local government web resources and services.